FW7441 Weather Reports


Display with metric or nautical units.
time (UTC)temp
F
wind
direction
speed
MPH
gust
MPH
rain 1hr
in
rain 24hr
in
rain mn
in
humidity
%
barometer
mb
20260831134038 70 162 2.0 2.0 0.00 0.30 0.30 97 1014.9
20260831133538 70 167 4.0 6.0 0.00 0.30 0.30 98 1014.6
20260831133033 70 181 2.0 3.0 0.00 0.30 0.30 98 1015.0
20260831132530 69 185 0.0 1.0 0.00 0.30 0.30 98 1015.0
20260831132029 69 131 1.0 2.0 0.00 0.30 0.30 98 1015.1
20260831131528 70 152 3.0 3.0 0.00 0.30 0.30 98 1015.1
20260831131025 70 177 0.0 0.0 0.00 0.30 0.30 98 1015.4
20260831130520 69 153 2.0 3.0 0.00 0.30 0.30 98 1015.0
20260831130016 69 235 0.0 0.0 0.00 0.30 0.30 99 1015.1
20260831125514 69 148 2.0 2.0 0.00 0.30 0.30 99 1015.3
20260831125010 69 208 0.0 0.0 0.05 0.30 0.30 99 1015.0
20260831124507 69 165 2.0 3.0 0.12 0.30 0.30 99 1014.8
20260831124002 69 137 2.0 3.0 0.31 0.29 0.29 99 1014.8
20260831123500 69 183 0.0 0.0 0.24 0.28 0.28 99 1014.8
20260831122955 69 252 0.0 1.0 0.00 0.24 0.24 99 1015.0
20260831122451 69 196 0.0 0.0 0.00 0.24 0.24 99 1014.8
20260831121946 69 209 0.0 0.0 0.00 0.24 0.24 99 1014.6
20260831121441 69 178 0.0 0.0 0.00 0.24 0.24 99 1014.5
20260831120937 69 208 0.0 0.0 0.05 0.24 0.24 99 1014.5
20260831120431 69 170 1.0 1.0 0.05 0.24 0.24 99 1014.5
20260831115931 69 204 1.0 1.0 0.00 0.23 0.23 99 1014.5
20260831115428 68 204 0.0 1.0 0.00 0.23 0.23 99 1014.7
20260831114927 68 200 0.0 1.0 0.12 0.23 0.23 99 1014.5
20260831114426 69 144 1.0 1.0 0.12 0.23 0.23 98 1015.0
20260831113922 69 167 0.0 1.0 0.12 0.21 0.21 98 1014.9
20260831113416 69 269 0.0 0.0 0.42 0.21 0.21 97 1014.8
20260831112911 69 304 0.0 0.0 0.42 0.19 0.19 97 1014.8
20260831112411 70 299 0.0 0.0 0.54 0.14 0.14 96 1015.1
20260831111906 70 134 0.0 1.0 0.42 0.12 0.12 94 1015.2
20260831111402 71 244 1.0 1.0 0.31 0.05 0.05 91 1015.1
20260831110858 72 146 1.0 2.0 0.31 0.05 0.05 90 1015.0
20260831110353 73 241 0.0 0.0 0.07 0.01 0.01 87 1015.1
20260831105851 73 260 0.0 0.0 0.00 0.00 0.00 86 1014.6
20260831105347 73 302 3.0 5.0 0.00 0.00 0.00 84 1014.5
20260831104842 73 273 0.0 0.0 0.00 0.00 0.00 85 1014.6
20260831104338 73 265 0.0 1.0 0.00 0.00 0.00 84 1014.0
20260831103838 73 199 0.0 0.0 0.00 0.00 0.00 83 1014.0
20260831103334 73 205 0.0 0.0 0.00 0.00 0.00 83 1013.7
20260831102828 73 170 1.0 1.0 0.00 0.00 0.00 83 1013.7
20260831102323 73 188 1.0 1.0 0.00 0.00 0.00 83 1013.7
20260831101819 73 206 1.0 2.0 0.00 0.00 0.00 83 1013.9
20260831101314 73 214 1.0 1.0 0.00 0.00 0.00 84 1013.6
20260831100810 73 213 0.0 0.0 0.00 0.00 0.00 85 1013.6
20260831100306 73 256 2.0 2.0 0.00 0.00 0.00 85 1013.7
20260831095805 73 193 1.0 1.0 0.00 0.00 0.00 85 1013.9
20260831095254 73 164 0.0 1.0 0.00 0.00 0.00 85 1013.6
20260831094749 73 236 1.0 2.0 0.00 0.00 0.00 86 1013.8
20260831094244 72 173 2.0 3.0 0.00 0.00 0.00 87 1013.8
20260831093740 72 188 3.0 3.0 0.00 0.00 0.00 88 1013.7
20260831093235 72 178 2.0 2.0 0.00 0.00 0.00 90 1013.7
20260831092732 71 167 2.0 2.0 0.00 0.00 0.00 92 1013.6
20260831092227 71 244 1.0 2.0 0.00 0.00 0.00 93 1013.7
20260831091726 71 215 0.0 1.0 0.00 0.00 0.00 94 1013.6
20260831091222 71 208 1.0 1.0 0.00 0.00 0.00 94 1013.7
20260831090717 71 187 1.0 1.0 0.00 0.00 0.00 94 1013.8
20260831090214 71 187 0.0 0.0 0.00 0.00 0.00 95 1013.8
20260831085708 71 186 2.0 3.0 0.00 0.00 0.00 95 1013.7
20260831085203 71 195 1.0 2.0 0.00 0.00 0.00 96 1013.9
20260831084658 71 187 1.0 1.0 0.00 0.00 0.00 96 1013.8
20260831084155 71 207 0.0 0.0 0.00 0.00 0.00 96 1014.0
20260831083651 71 196 0.0 1.0 0.00 0.00 0.00 96 1013.7
20260831083146 71 204 0.0 0.0 0.00 0.00 0.00 96 1013.8
20260831082644 71 204 0.0 0.0 0.00 0.00 0.00 96 1013.9
20260831082140 71 204 0.0 0.0 0.00 0.00 0.00 96 1014.0
20260831081636 71 203 0.0 0.0 0.00 0.00 0.00 96 1014.0
20260831081131 71 204 0.0 0.0 0.00 0.00 0.00 96 1014.0
20260831080627 71 204 0.0 0.0 0.00 0.00 0.00 97 1013.9
20260831080121 71 205 0.0 0.0 0.00 0.00 0.00 97 1013.9
20260831075617 71 205 0.0 0.0 0.00 0.00 0.00 97 1013.9
20260831075112 71 205 0.0 0.0 0.00 0.00 0.00 97 1014.0
20260831074612 71 205 0.0 0.0 0.00 0.00 0.00 97 1014.2
20260831074107 71 205 0.0 0.0 0.00 0.00 0.00 97 1014.5
20260831073602 71 205 0.0 0.0 0.00 0.00 0.00 97 1014.5
20260831073101 72 205 0.0 0.0 0.00 0.00 0.00 97 1014.2
20260831072556 72 210 0.0 0.0 0.00 0.00 0.00 97 1014.4
20260831072053 72 202 1.0 1.0 0.00 0.00 0.00 97 1014.6
20260831071550 72 200 0.0 0.0 0.00 0.00 0.00 97 1014.3
20260831071046 72 198 0.0 0.0 0.00 0.00 0.00 97 1014.6
20260831070545 72 197 0.0 0.0 0.00 0.00 0.00 97 1014.4
20260831070040 72 197 0.0 0.0 0.00 0.00 0.00 97 1014.6
20260831065538 72 196 0.0 0.0 0.00 0.00 0.00 97 1014.7
20260831065038 72 193 0.0 1.0 0.00 0.00 0.00 97 1014.6
20260831064533 72 212 0.0 1.0 0.00 0.00 0.00 97 1014.7
20260831064029 72 195 0.0 0.0 0.00 0.00 0.00 97 1014.4
20260831063526 72 170 0.0 0.0 0.00 0.00 0.00 97 1014.6
20260831063025 73 188 0.0 0.0 0.00 0.00 0.00 96 1014.6
20260831062520 73 209 0.0 1.0 0.00 0.00 0.00 96 1014.4
20260831062020 73 210 0.0 0.0 0.00 0.00 0.00 96 1014.5
20260831061517 73 199 0.0 1.0 0.00 0.00 0.00 96 1014.6
20260831061014 73 212 0.0 0.0 0.00 0.00 0.00 96 1014.7
20260831060514 73 200 1.0 2.0 0.00 0.00 0.00 96 1014.4
20260831060009 73 195 0.0 1.0 0.00 0.00 0.00 97 1014.3
20260831055503 73 169 2.0 3.0 0.00 0.00 0.00 97 1014.5
20260831054959 73 151 0.0 0.0 0.00 0.00 0.00 97 1014.5
20260831054453 73 162 0.0 0.0 0.00 0.00 0.00 97 1014.6
20260831053953 73 143 0.0 0.0 0.00 0.00 0.00 97 1014.5
20260831053451 73 142 2.0 2.0 0.00 0.00 0.00 98 1014.6
20260831052946 73 170 1.0 1.0 0.00 0.00 0.00 98 1014.7
20260831052445 73 166 0.0 0.0 0.00 0.00 0.00 98 1014.5
20260831051944 73 220 1.0 2.0 0.00 0.00 0.00 98 1014.2
20260831051443 72 157 1.0 2.0 0.00 0.00 0.00 98 1014.5
20260831050937 73 159 2.0 2.0 0.00 0.00 0.00 98 1014.6
20260831050437 72 209 0.0 1.0 0.00 0.00 0.00 98 1014.5
20260831045935 72 143 3.0 5.0 0.00 0.24 0.24 98 1014.5
20260831045435 72 205 1.0 2.0 0.00 0.24 0.24 99 1014.4
20260831044930 72 166 0.0 1.0 0.00 0.24 0.24 99 1014.4
20260831044425 72 156 1.0 1.0 0.00 0.24 0.24 99 1014.3
20260831043921 72 151 0.0 1.0 0.00 0.24 0.24 99 1014.3
20260831043421 72 141 0.0 0.0 0.00 0.24 0.24 99 1014.5
20260831042917 72 113 1.0 2.0 0.00 0.24 0.24 99 1014.5
20260831042416 72 210 0.0 0.0 0.00 0.24 0.24 99 1014.8
20260831041911 72 152 2.0 2.0 0.00 0.24 0.24 99 1014.6
20260831041410 73 169 2.0 2.0 0.00 0.24 0.24 99 1014.8
20260831040905 73 51 1.0 2.0 0.00 0.24 0.24 99 1014.9
20260831040400 73 62 1.0 2.0 0.00 0.24 0.24 99 1015.1
20260831035858 73 346 0.0 1.0 0.00 0.24 0.24 99 1015.0
20260831035357 73 130 2.0 2.0 0.00 0.24 0.24 98 1014.5
20260831034851 73 124 1.0 1.0 0.00 0.24 0.24 98 1014.7
20260831034346 73 113 2.0 2.0 0.00 0.24 0.24 98 1014.5
20260831033836 73 170 1.0 1.0 0.00 0.24 0.24 98 1014.4
20260831033331 73 179 1.0 2.0 0.00 0.24 0.24 98 1014.3
20260831032826 73 187 0.0 1.0 0.00 0.24 0.24 98 1014.6
20260831032320 73 171 3.0 3.0 0.05 0.24 0.24 98 1015.0
20260831031815 73 177 1.0 2.0 0.05 0.24 0.24 98 1014.9
20260831031314 73 244 2.0 3.0 0.00 0.23 0.23 97 1014.7
20260831030810 73 172 4.0 5.0 0.00 0.23 0.23 97 1015.0
20260831030308 73 196 1.0 2.0 0.00 0.23 0.23 97 1015.3
20260831025807 73 214 2.0 2.0 0.00 0.23 0.23 97 1015.6
20260831025306 73 187 0.0 1.0 0.00 0.23 0.23 97 1015.3
20260831024758 73 227 1.0 1.0 0.00 0.23 0.23 97 1015.3
20260831024257 73 254 2.0 2.0 0.00 0.23 0.23 97 1015.6
20260831023756 73 196 1.0 1.0 0.00 0.23 0.23 97 1015.7
20260831023254 73 269 1.0 2.0 0.00 0.23 0.23 96 1015.4
20260831022750 73 197 2.0 3.0 0.00 0.23 0.23 96 1015.3
20260831022249 73 119 3.0 5.0 0.00 0.23 0.23 96 1015.3
20260831021744 73 276 2.0 2.0 0.00 0.23 0.23 96 1015.6
20260831021243 73 184 1.0 2.0 0.00 0.23 0.23 96 1015.5
20260831020740 73 218 0.0 1.0 0.00 0.23 0.23 97 1015.5
20260831020239 73 287 2.0 2.0 0.00 0.23 0.23 97 1015.6
20260831015735 73 233 0.0 0.0 0.00 0.23 0.23 97 1015.5
20260831015230 73 169 1.0 2.0 0.00 0.23 0.23 97 1015.5
20260831014725 73 178 3.0 3.0 0.00 0.23 0.23 97 1015.5
20260831014220 73 186 0.0 0.0 0.00 0.23 0.23 97 1015.3
20260831013717 73 203 3.0 3.0 0.00 0.23 0.23 97 1015.2
20260831013215 73 194 1.0 1.0 0.00 0.23 0.23 97 1015.4
20260831012711 73 190 1.0 1.0 0.00 0.23 0.23 97 1015.5
20260831012206 73 175 1.0 1.0 0.00 0.23 0.23 97 1015.5
20260831011705 73 206 1.0 1.0 0.00 0.23 0.23 97 1015.5
20260831011201 73 216 2.0 2.0 0.00 0.23 0.23 97 1015.3
20260831010657 73 225 0.0 1.0 0.00 0.23 0.23 97 1015.1
20260831010152 73 263 1.0 1.0 0.00 0.23 0.23 97 1015.1
20260831005651 72 208 0.0 1.0 0.00 0.23 0.23 97 1015.1
20260831005147 72 217 2.0 2.0 0.00 0.23 0.23 97 1015.2
20260831004643 72 221 3.0 3.0 0.00 0.23 0.23 97 1015.2
20260831004138 72 223 1.0 1.0 0.00 0.23 0.23 97 1015.0
20260831003634 72 106 1.0 1.0 0.00 0.23 0.23 97 1015.1
20260831003130 72 222 1.0 1.0 0.00 0.23 0.23 97 1015.0
20260831002628 72 220 1.0 2.0 0.00 0.23 0.23 97 1015.2
20260831002124 72 204 4.0 5.0 0.00 0.23 0.23 97 1015.2
20260831001619 72 186 1.0 1.0 0.00 0.23 0.23 98 1015.2
20260831001115 72 230 3.0 5.0 0.00 0.23 0.23 98 1015.0
20260831000612 72 147 3.0 5.0 0.00 0.23 0.23 98 1014.7
20260831000111 72 231 1.0 2.0 0.00 0.23 0.23 98 1014.8
20260830235610 72 218 4.0 6.0 0.00 0.23 0.23 98 1014.7
20260830235105 72 170 2.0 3.0 0.07 0.23 0.23 98 1014.5
20260830234600 72 173 3.0 5.0 0.07 0.23 0.23 97 1014.6
20260830234055 72 82 2.0 2.0 0.00 0.22 0.22 97 1014.5
20260830233550 73 197 0.0 1.0 0.05 0.22 0.22 97 1014.9
20260830233046 73 163 1.0 1.0 0.05 0.22 0.22 97 1015.2
20260830232542 73 203 0.0 1.0 0.00 0.21 0.21 96 1015.3
20260830232038 73 170 0.0 0.0 0.00 0.21 0.21 96 1015.3
20260830231534 73 210 1.0 2.0 0.00 0.21 0.21 96 1015.2
20260830231033 73 229 2.0 2.0 0.00 0.21 0.21 96 1015.2
20260830230528 73 195 0.0 1.0 0.00 0.21 0.21 96 1015.4
20260830230023 73 216 1.0 1.0 0.07 0.21 0.21 96 1015.3
20260830225518 73 203 3.0 3.0 0.07 0.21 0.21 95 1015.3
20260830225017 73 186 1.0 1.0 0.00 0.20 0.20 95 1015.5
20260830224516 73 227 0.0 1.0 0.00 0.20 0.20 95 1015.4
20260830224013 73 269 1.0 1.0 0.00 0.20 0.20 95 1015.6
20260830223510 73 177 0.0 1.0 0.05 0.20 0.20 94 1015.6
20260830223009 73 199 1.0 1.0 0.05 0.20 0.20 94 1015.8
20260830222504 73 203 2.0 3.0 0.00 0.19 0.19 93 1015.6
20260830222000 74 174 2.0 3.0 0.00 0.19 0.19 92 1015.6
20260830221455 74 198 0.0 1.0 0.07 0.19 0.19 91 1015.4
20260830220945 75 202 0.0 1.0 0.07 0.19 0.19 90 1015.5
20260830220445 75 110 1.0 2.0 0.00 0.18 0.18 89 1015.6
20260830215937 75 240 1.0 1.0 0.00 0.18 0.18 88 1015.7
20260830215432 75 194 1.0 1.0 0.00 0.18 0.18 88 1015.6
20260830214927 75 221 1.0 1.0 0.00 0.18 0.18 88 1015.5
20260830214423 75 218 3.0 5.0 0.00 0.18 0.18 87 1015.4
20260830213922 76 167 2.0 2.0 0.00 0.18 0.18 87 1015.2
20260830213418 76 141 3.0 3.0 0.00 0.18 0.18 86 1015.4
20260830212913 76 190 3.0 5.0 0.00 0.18 0.18 85 1015.4
20260830212409 76 248 0.0 1.0 0.00 0.18 0.18 85 1015.6
20260830211908 76 212 2.0 2.0 0.00 0.18 0.18 85 1015.5
20260830211402 76 153 2.0 3.0 0.00 0.18 0.18 84 1015.4
20260830210858 77 214 1.0 1.0 0.00 0.18 0.18 84 1015.7
20260830210357 77 183 7.0 9.0 0.00 0.18 0.18 84 1015.5
20260830205855 78 215 0.0 3.0 0.00 0.18 0.18 86 1015.7
20260830205354 78 169 1.0 1.0 0.00 0.18 0.18 85 1015.3
20260830204849 77 151 2.0 3.0 0.00 0.18 0.18 87 1015.5
20260830204348 77 205 1.0 1.0 0.00 0.18 0.18 89 1015.6
20260830203844 77 213 1.0 1.0 0.00 0.18 0.18 89 1015.6
20260830203341 77 177 0.0 0.0 0.00 0.18 0.18 89 1015.5
20260830202839 77 198 0.0 0.0 0.00 0.18 0.18 86 1016.0
20260830202335 77 229 1.0 1.0 0.00 0.18 0.18 85 1015.8
20260830201830 78 220 0.0 0.0 0.00 0.18 0.18 85 1015.9
20260830201324 77 304 2.0 3.0 0.00 0.18 0.18 85 1015.8
20260830200820 77 229 1.0 1.0 0.00 0.18 0.18 86 1015.7
20260830200319 77 243 2.0 2.0 0.00 0.18 0.18 86 1015.5
20260830195815 77 244 0.0 1.0 0.00 0.18 0.18 87 1015.6
20260830195314 76 169 1.0 1.0 0.00 0.18 0.18 86 1015.4
20260830194813 76 173 3.0 3.0 0.00 0.18 0.18 88 1015.5
20260830194306 75 184 1.0 1.0 0.00 0.18 0.18 90 1015.4
20260830193801 75 222 0.0 0.0 0.00 0.18 0.18 91 1015.4
20260830193255 74 173 1.0 1.0 0.00 0.18 0.18 91 1015.3
20260830192752 74 191 0.0 0.0 0.00 0.18 0.18 92 1015.2
20260830192246 75 207 0.0 0.0 0.00 0.18 0.18 91 1015.3
20260830191742 75 195 1.0 1.0 0.12 0.18 0.18 90 1015.3
20260830191241 76 250 0.0 1.0 0.19 0.18 0.18 86 1015.2
20260830190737 77 212 0.0 0.0 0.07 0.16 0.16 83 1015.5
20260830190232 77 187 1.0 1.0 0.00 0.15 0.15 82 1015.6
20260830185730 77 160 2.0 3.0 0.00 0.15 0.15 82 1015.3
20260830185226 77 235 2.0 2.0 0.00 0.15 0.15 82 1015.3
20260830184725 78 221 1.0 1.0 0.00 0.15 0.15 82 1015.5
20260830184225 78 237 1.0 1.0 0.00 0.15 0.15 80 1015.5
20260830183720 79 217 1.0 1.0 0.00 0.15 0.15 77 1015.5
20260830183215 79 177 1.0 2.0 0.00 0.15 0.15 76 1015.8
20260830182710 79 227 1.0 1.0 0.00 0.15 0.15 75 1016.0
20260830182207 80 254 1.0 2.0 0.00 0.15 0.15 75 1015.8
20260830181703 80 308 1.0 1.0 0.00 0.15 0.15 73 1015.1
20260830181203 80 207 1.0 1.0 0.00 0.15 0.15 71 1014.7
20260830180701 81 219 2.0 5.0 0.00 0.15 0.15 69 1014.4
20260830180156 82 126 3.0 5.0 0.00 0.15 0.15 69 1014.3
20260830175655 82 198 3.0 5.0 0.00 0.15 0.15 67 1014.2
20260830175150 84 210 7.0 10.0 0.00 0.15 0.15 64 1014.1
20260830174646 84 241 5.0 6.0 0.00 0.15 0.15 66 1014.0
20260830174141 84 232 4.0 6.0 0.00 0.15 0.15 67 1014.3
20260830173636 82 114 2.0 3.0 0.00 0.15 0.15 70 1014.6
20260830173131 81 238 4.0 5.0 0.00 0.15 0.15 71 1014.3
20260830172628 80 192 2.0 2.0 0.00 0.15 0.15 71 1014.3
20260830172124 80 274 4.0 6.0 0.00 0.15 0.15 72 1014.4
20260830171624 80 211 3.0 6.0 0.00 0.15 0.15 71 1014.6
20260830171119 80 147 5.0 8.0 0.00 0.15 0.15 73 1014.5
20260830170614 80 166 5.0 10.0 0.00 0.15 0.15 73 1014.4
20260830170113 80 210 5.0 7.0 0.00 0.15 0.15 74 1014.4
20260830165608 80 193 5.0 9.0 0.00 0.15 0.15 73 1014.5
20260830165103 81 202 2.0 2.0 0.00 0.15 0.15 73 1014.5
20260830164559 82 199 3.0 3.0 0.00 0.15 0.15 72 1014.5
20260830164055 82 193 3.0 5.0 0.00 0.15 0.15 73 1014.8
20260830163552 83 192 2.0 6.0 0.00 0.15 0.15 71 1014.4
20260830163051 82 255 6.0 7.0 0.00 0.15 0.15 72 1014.4
20260830162547 82 247 4.0 7.0 0.00 0.15 0.15 70 1014.5
20260830162042 82 147 4.0 5.0 0.00 0.15 0.15 72 1014.5
20260830161536 81 211 3.0 6.0 0.00 0.15 0.15 73 1014.5
20260830161031 81 307 5.0 6.0 0.00 0.15 0.15 74 1014.4
20260830160527 82 246 3.0 5.0 0.00 0.15 0.15 74 1014.3
20260830160023 81 253 5.0 5.0 0.00 0.15 0.15 74 1014.4
20260830155519 80 253 2.0 3.0 0.00 0.15 0.15 75 1014.4
20260830155014 80 202 1.0 1.0 0.00 0.15 0.15 75 1014.4
20260830154509 80 178 1.0 2.0 0.00 0.15 0.15 75 1014.7
20260830154006 80 227 1.0 2.0 0.00 0.15 0.15 77 1014.4
20260830153502 79 190 5.0 6.0 0.00 0.15 0.15 76 1014.5
20260830153001 79 247 5.0 6.0 0.00 0.15 0.15 77 1014.7
20260830152456 78 144 4.0 6.0 0.00 0.15 0.15 79 1014.4
20260830151955 78 225 5.0 6.0 0.00 0.15 0.15 79 1014.6
20260830151454 78 246 4.0 6.0 0.00 0.15 0.15 81 1014.6
20260830150949 77 236 6.0 8.0 0.00 0.15 0.15 81 1014.9
20260830150444 77 184 3.0 5.0 0.00 0.15 0.15 82 1014.5
20260830145944 76 235 5.0 6.0 0.00 0.15 0.15 84 1014.5
20260830145438 76 151 2.0 2.0 0.00 0.15 0.15 85 1014.4
20260830144934 75 193 5.0 7.0 0.00 0.15 0.15 86 1014.6
20260830144431 75 207 3.0 5.0 0.00 0.15 0.15 87 1014.7
20260830143930 74 144 4.0 6.0 0.00 0.15 0.15 88 1014.7
20260830143426 74 229 3.0 5.0 0.00 0.15 0.15 88 1014.7
20260830142925 73 222 4.0 6.0 0.00 0.15 0.15 89 1015.0
20260830142420 73 290 5.0 9.0 0.00 0.15 0.15 90 1014.9
20260830141920 72 258 3.0 3.0 0.00 0.15 0.15 92 1015.1
20260830141416 72 181 4.0 6.0 0.00 0.15 0.15 93 1014.9
20260830140911 71 212 4.0 6.0 0.00 0.15 0.15 93 1014.9
20260830140406 70 137 1.0 3.0 0.00 0.15 0.15 95 1014.8
20260830135905 70 114 3.0 3.0 0.00 0.15 0.15 96 1014.9
20260830135401 69 155 1.0 2.0 0.00 0.15 0.15 97 1014.9
20260830134856 69 238 1.0 2.0 0.00 0.15 0.15 97 1014.7
20260830134352 68 134 3.0 5.0 0.00 0.15 0.15 97 1015.0